Weather observations for the past three days for
The Gabreski Airport
Imperial (Metric)
Date Time (edt) Wind (mph) Vis. (mi.) Weather Sky Cond. Temperature (ºF) Relative Humidity Wind Chill (°F) Heat Index (°F) Pressure Precipitation (in)
Air Dwpt 6 hour altimeter (in) sea level (mb) 1 hr 3 hr 6 hr
Max. Min.
22 05:53 SW 3 10.00 A Few Clouds FEW110 72 70 94% 30.07 1018.3
22 04:53 SW 6 10.00 A Few Clouds FEW120 71.1 69.1 94% 30.07 1018.2
22 03:53 W 7 10.00 Overcast OVC090 72 70 94% 30.08 1018.5
22 02:53 SW 5 10.00 Fair CLR 72 70 94% 30.08 1018.6
22 01:53 S 6 10.00 Partly Cloudy SCT080 72 70 78.1 72 94% 30.1 1019.1
22 00:53 S 5 10.00 A Few Clouds FEW070 72 70 94% 30.11 1019.7
21 23:53 S 7 10.00 Mostly Cloudy SCT070 BKN085 73 70 90% 30.13 1020.2
21 22:53 S 5 10.00 A Few Clouds FEW080 73.9 69.1 85% 30.13 1020.1
21 21:53 S 5 10.00 Fair CLR 75 70 84% 75 30.13 1020.3
21 20:53 W 7 10.00 A Few Clouds FEW075 77 70 79% 79 30.15 1020.8
21 19:53 W 6 10.00 Mostly Cloudy SCT075 BKN110 78.1 69.1 82.9 77 74% 80 30.15 1021.0
21 18:53 SW 9 G 16 10.00 Fair CLR 78.1 68 71% 80 30.12 1019.9
21 17:53 SW 12 G 22 10.00 Fair CLR 79 68 69% 81 30.12 1019.9
21 16:53 SW 12 G 20 10.00 Fair CLR 82 71.1 69% 86 30.11 1019.5
21 15:53 SW 10 G 17 10.00 Fair CLR 82.9 72 70% 88 30.12 1019.9
21 14:53 S 10 10.00 Fair CLR 82 71.1 69% 86 30.14 1020.7
21 13:53 S 9 10.00 Fair CLR 81 70 84 79 69% 84 30.16 1021.2
21 12:53 S 8 10.00 Fair CLR 84 71.1 65% 89 30.18 1021.8
21 11:53 SW 7 10.00 Fair CLR 82 71.1 69% 86 30.18 1022.1
21 10:53 S 6 10.00 Fair CLR 82 71.1 69% 86 30.18 1022.1
21 09:53 W 6 10.00 Fair CLR 81 71.1 72% 85 30.19 1022.3
21 08:53 Vrbl 5 10.00 Fair CLR 82.9 70 65% 87 30.19 1022.2
21 07:53 W 7 10.00 Fair CLR 79 70 79 70 74% 82 30.2 1022.5
21 06:53 NW 3 10.00 Fair CLR 73.9 70 88% 30.21 1022.8
21 05:53 SW 3 10.00 Fair CLR 71.1 68 90% 30.2 1022.7
21 04:53 W 7 10.00 A Few Clouds FEW065 71.1 68 90% 30.21 1022.8
21 03:53 SW 7 10.00 Fair CLR 72 68 87% 30.2 1022.6
21 02:53 SW 8 10.00 Fair CLR 72 66.9 84% 30.21 1023.1
21 01:53 SW 7 10.00 Fair CLR 72 68 73.9 71.1 87% 30.23 1023.5
21 00:53 SW 5 10.00 A Few Clouds FEW070 72 66.9 84% 30.24 1023.8
20 23:53 SW 7 10.00 A Few Clouds FEW070 72 68 87% 30.25 1024.2
20 22:53 SW 7 10.00 Fair CLR 72 69.1 91% 30.26 1024.6
20 21:53 SW 7 10.00 Fair CLR 72 68 87% 30.27 1024.8
20 20:53 SW 8 10.00 Fair CLR 73 66.9 81% 30.25 1024.2
20 19:53 SW 10 G 20 10.00 Fair CLR 73.9 68 82.9 73.9 82% 30.24 1024.0
20 18:53 SW 13 G 24 10.00 Fair CLR 77 68 74% 79 30.24 1023.8
20 17:53 SW 15 G 24 10.00 Fair CLR 79 68 69% 81 30.25 1024.2
20 16:53 SW 16 G 26 10.00 Fair CLR 79 69.1 72% 82 30.26 1024.6
20 15:53 SW 10 G 21 10.00 Fair CLR 82 69.1 65% 85 30.27 1024.9
20 14:53 SW 10 G 21 10.00 Fair CLR 81 70 69% 84 30.29 1025.7
20 13:53 SW 10 G 20 10.00 Fair CLR 81 71.1 82 73 72% 85 30.31 1026.2
20 12:53 SW 9 G 20 10.00 Fair CLR 80.1 70 71% 83 30.33 1026.9
20 11:53 SW 13 G 23 10.00 Fair CLR 79 70 74% 82 30.34 1027.2
20 10:53 SW 10 G 22 10.00 Fair CLR 79 69.1 72% 82 30.34 1027.2
20 09:53 SW 13 G 22 10.00 Fair CLR 75.9 68 77% 77 30.34 1027.2
20 08:53 SW 14 G 22 10.00 Fair CLR 75 68 79% 76 30.33 1027.1
20 07:53 SW 9 10.00 Fair CLR 73 68 73 69.1 84% 30.33 1027.1
20 06:53 SW 8 10.00 Fair CLR 72 66.9 84% 30.33 1026.9
20 05:53 SW 6 10.00 Fair CLR 70 66.9 90% 30.32 1026.7
20 04:53 SW 6 10.00 Fair CLR 70 66.9 90% 30.32 1026.6
20 03:53 SW 6 10.00 Fair CLR 70 66.9 90% 30.32 1026.6
20 02:53 SW 8 10.00 Fair CLR 71.1 68 90% 30.32 1026.8
20 01:53 SW 7 10.00 Fair CLR 71.1 66.9 73 71.1 87% 30.33 1027.1
20 00:53 SW 7 10.00 Fair CLR 71.1 66.9 87% 30.34 1027.2
19 23:53 SW 8 10.00 Fair CLR 71.1 66.9 87% 30.35 1027.7
19 22:53 SW 9 10.00 Fair CLR 71.1 66.9 87% 30.35 1027.7
19 21:53 SW 9 10.00 Fair CLR 71.1 66.9 87% 30.35 1027.6
19 20:53 SW 6 10.00 Fair CLR 71.1 66.9 87% 30.35 1027.7
19 19:53 SW 8 10.00 Fair CLR 73 66 80.1 73 79% 30.36 1028.0
19 18:53 SW 9 10.00 Fair CLR 75 64.9 71% 77 30.36 1027.9
19 17:53 SW 12 G 24 10.00 Fair CLR 75.9 64.9 69% 78 30.35 1027.7
19 16:53 SW 12 G 22 10.00 Fair CLR 78.1 64.9 64% 80 30.35 1027.6
19 15:53 S 10 10.00 Fair CLR 79 66 65% 81 30.36 1027.9
19 14:53 SW 13 G 21 10.00 Fair CLR 78.1 66.9 69% 80 30.36 1028.2
19 13:53 S 14 G 21 10.00 Fair CLR 79 68 80.1 73 69% 81 30.37 1028.2
19 12:53 SW 10 G 20 10.00 Fair CLR 79 69.1 72% 82 30.38 1028.7
19 11:53 SW 12 10.00 Fair CLR 78.1 69.1 74% 80 30.37 1028.5
19 10:53 SW 10 10.00 Fair CLR 78.1 69.1 74% 80 30.38 1028.5
19 09:53 SW 8 G 18 10.00 Fair CLR 77 69.1 77% 79 30.37 1028.4
19 08:53 SW 10 10.00 Fair CLR 75.9 68 77% 77 30.37 1028.5
19 07:53 SW 9 10.00 Fair CLR 73 66.9 73.9 69.1 81% 30.37 1028.3
19 06:53 SW 6 10.00 Mostly Cloudy BKN050 71.1 66.9 87% 30.37 1028.5
Date Time (edt) Wind (mph) Vis. (mi.) Weather Sky Cond. Air Dwpt Max. Min. Relative Humidity Wind Chill (°F) Heat Index (°F) altimeter (in) sea level (mb) 1 hr 3 hr 6 hr
6 hour
Temperature (ºF) Pressure Precipitation (in)